Time,TemperatureF,DewpointF,PressureIn,WindDirection,WindDirectionDegrees,WindSpeedMPH,WindSpeedGustMPH,Humidity,HourlyPrecipIn,Conditions,Clouds,dailyrainin,SoftwareType,DateUTC
2013-08-03 00:14:00,51.2,48.0,29.88,NW,314,0.0,0.0,90,0.00,,,0.00,weatherlink.com 1.10,2013-08-03 07:14:00,
2013-08-03 00:29:00,51.2,49.0,29.88,NW,314,0.0,0.0,91,0.00,,,0.00,weatherlink.com 1.10,2013-08-03 07:29:00,
2013-08-03 00:44:00,50.8,48.0,29.88,NW,314,0.0,0.0,91,0.00,,,0.00,weatherlink.com 1.10,2013-08-03 07:44:00,
2013-08-03 01:00:00,50.4,48.0,29.88,NW,314,0.0,0.0,92,0.00,,,0.00,weatherlink.com 1.10,2013-08-03 08:00:00,
2013-08-03 01:15:00,50.2,48.0,29.88,NW,314,0.0,0.0,93,0.00,,,0.00,weatherlink.com 1.10,2013-08-03 08:15:00,
2013-08-03 01:30:00,49.9,48.0,29.88,NW,314,0.0,0.0,93,0.00,,,0.00,weatherlink.com 1.10,2013-08-03 08:30:00,
2013-08-03 01:45:00,49.7,48.0,29.88,NW,314,0.0,0.0,94,0.00,,,0.00,weatherlink.com 1.10,2013-08-03 08:45:00,
2013-08-03 02:00:00,49.6,48.0,29.87,NW,314,0.0,0.0,94,0.00,,,0.00,weatherlink.com 1.10,2013-08-03 09:00:00,
2013-08-03 02:15:00,49.3,48.0,29.88,NW,314,0.0,0.0,94,0.00,,,0.00,weatherlink.com 1.10,2013-08-03 09:15:00,
2013-08-03 02:30:00,49.0,47.0,29.87,NW,314,0.0,0.0,94,0.00,,,0.00,weatherlink.com 1.10,2013-08-03 09:30:00,
2013-08-03 02:45:00,48.9,47.0,29.88,NW,314,0.0,0.0,94,0.00,,,0.00,weatherlink.com 1.10,2013-08-03 09:45:00,
2013-08-03 03:00:00,48.9,48.0,29.88,NW,314,0.0,0.0,95,0.00,,,0.00,weatherlink.com 1.10,2013-08-03 10:00:00,
2013-08-03 03:15:00,48.5,47.0,29.88,NW,314,0.0,0.0,95,0.00,,,0.00,weatherlink.com 1.10,2013-08-03 10:15:00,
2013-08-03 03:30:00,48.1,47.0,29.88,NW,314,0.0,0.0,95,0.00,,,0.00,weatherlink.com 1.10,2013-08-03 10:30:00,
2013-08-03 03:45:00,47.5,46.0,29.88,NW,314,0.0,0.0,95,0.00,,,0.00,weatherlink.com 1.10,2013-08-03 10:45:00,
2013-08-03 04:00:00,47.0,46.0,29.88,NW,314,0.0,0.0,95,0.00,,,0.00,weatherlink.com 1.10,2013-08-03 11:00:00,
2013-08-03 04:15:00,46.4,45.0,29.88,NW,314,0.0,0.0,95,0.00,,,0.00,weatherlink.com 1.10,2013-08-03 11:15:00,
2013-08-03 04:30:00,46.2,45.0,29.89,NW,314,0.0,0.0,95,0.00,,,0.00,weatherlink.com 1.10,2013-08-03 11:30:00,
2013-08-03 04:45:00,46.3,45.0,29.89,NW,314,0.0,0.0,96,0.00,,,0.00,weatherlink.com 1.10,2013-08-03 11:45:00,
2013-08-03 05:00:00,46.5,46.0,29.89,NW,314,0.0,0.0,96,0.00,,,0.00,weatherlink.com 1.10,2013-08-03 12:00:00,
2013-08-03 05:15:00,47.9,47.0,29.89,NW,314,0.0,0.0,96,0.00,,,0.00,weatherlink.com 1.10,2013-08-03 12:15:00,
2013-08-03 05:30:00,49.9,49.0,29.89,NNW,327,0.0,0.0,96,0.00,,,0.00,weatherlink.com 1.10,2013-08-03 12:30:00,
2013-08-03 05:45:00,50.6,50.0,29.89,NNW,327,0.0,0.0,96,0.00,,,0.00,weatherlink.com 1.10,2013-08-03 12:45:00,
2013-08-03 06:00:00,51.1,50.0,29.90,NNW,338,0.0,0.0,96,0.00,,,0.00,weatherlink.com 1.10,2013-08-03 13:00:00,
2013-08-03 06:15:00,51.5,50.0,29.90,NNW,345,0.0,0.0,96,0.00,,,0.00,weatherlink.com 1.10,2013-08-03 13:15:00,
2013-08-03 06:30:00,52.1,51.0,29.90,NE,39,0.0,1.0,95,0.00,,,0.00,weatherlink.com 1.10,2013-08-03 13:30:00,
2013-08-03 06:45:00,52.5,51.0,29.91,NE,41,0.0,1.0,94,0.00,,,0.00,weatherlink.com 1.10,2013-08-03 13:45:00,
2013-08-03 07:00:00,52.9,51.0,29.91,ENE,59,0.0,1.0,93,0.00,,,0.00,weatherlink.com 1.10,2013-08-03 14:00:00,
2013-08-03 07:15:00,53.3,51.0,29.91,East,89,0.0,1.0,92,0.00,,,0.00,weatherlink.com 1.10,2013-08-03 14:15:00,
2013-08-03 07:30:00,53.7,51.0,29.92,ENE,62,0.0,1.0,91,0.00,,,0.00,weatherlink.com 1.10,2013-08-03 14:30:00,
2013-08-03 07:45:00,53.8,51.0,29.92,ENE,67,0.0,1.0,90,0.00,,,0.00,weatherlink.com 1.10,2013-08-03 14:45:00,
2013-08-03 08:00:00,54.4,52.0,29.92,ESE,109,1.0,1.0,90,0.00,,,0.00,weatherlink.com 1.10,2013-08-03 15:00:00,
2013-08-03 08:16:00,55.1,52.0,29.93,SE,130,0.0,1.0,89,0.00,,,0.00,weatherlink.com 1.10,2013-08-03 15:16:00,
2013-08-03 08:31:00,55.7,52.0,29.93,SE,129,0.0,1.0,87,0.00,,,0.00,weatherlink.com 1.10,2013-08-03 15:31:00,
2013-08-03 08:46:00,56.3,52.0,29.93,SE,133,0.0,1.0,85,0.00,,,0.00,weatherlink.com 1.10,2013-08-03 15:46:00,
2013-08-03 09:01:00,57.1,52.0,29.93,ESE,115,0.0,1.0,84,0.00,,,0.00,weatherlink.com 1.10,2013-08-03 16:01:00,
2013-08-03 09:16:00,58.0,52.0,29.94,SE,136,0.0,1.0,81,0.00,,,0.00,weatherlink.com 1.10,2013-08-03 16:16:00,
2013-08-03 09:31:00,59.0,53.0,29.93,SSE,155,0.0,1.0,80,0.00,,,0.00,weatherlink.com 1.10,2013-08-03 16:31:00,
2013-08-03 09:46:00,60.4,53.0,29.93,SE,129,0.0,1.0,77,0.00,,,0.00,weatherlink.com 1.10,2013-08-03 16:46:00,
2013-08-03 10:01:00,60.8,54.0,29.93,NE,50,0.0,3.0,77,0.00,,,0.00,weatherlink.com 1.10,2013-08-03 17:01:00,
2013-08-03 10:16:00,63.5,54.0,29.93,NE,44,0.0,2.0,72,0.00,,,0.00,weatherlink.com 1.10,2013-08-03 17:16:00,
2013-08-03 10:31:00,66.9,54.0,29.93,SE,141,0.0,3.0,63,0.00,,,0.00,weatherlink.com 1.10,2013-08-03 17:31:00,
2013-08-03 10:46:00,69.6,54.0,29.93,NNE,30,0.0,2.0,59,0.00,,,0.00,weatherlink.com 1.10,2013-08-03 17:46:00,
2013-08-03 11:01:00,70.0,54.0,29.92,South,181,0.0,1.0,58,0.00,,,0.00,weatherlink.com 1.10,2013-08-03 18:01:00,
2013-08-03 11:31:00,72.4,55.0,29.92,NE,41,1.0,3.0,54,0.00,,,0.00,weatherlink.com 1.10,2013-08-03 18:31:00,
2013-08-03 12:16:00,74.3,56.0,29.91,SSW,200,1.0,4.0,54,0.00,,,0.00,weatherlink.com 1.10,2013-08-03 19:16:00,
2013-08-03 12:31:00,75.2,57.0,29.91,SE,134,0.0,3.0,54,0.00,,,0.00,weatherlink.com 1.10,2013-08-03 19:31:00,
2013-08-03 12:46:00,76.8,57.0,29.90,SE,127,0.0,4.0,51,0.00,,,0.00,weatherlink.com 1.10,2013-08-03 19:46:00,
2013-08-03 13:16:00,78.2,57.0,29.90,SW,231,2.0,5.0,49,0.00,,,0.00,weatherlink.com 1.10,2013-08-03 20:16:00,
2013-08-03 13:32:00,80.8,57.0,29.90,SW,236,1.0,3.0,45,0.00,,,0.00,weatherlink.com 1.10,2013-08-03 20:32:00,
2013-08-03 13:46:00,80.4,58.0,29.89,SSW,212,1.0,3.0,46,0.00,,,0.00,weatherlink.com 1.10,2013-08-03 20:46:00,
2013-08-03 14:01:00,81.5,57.0,29.89,SSW,210,0.0,2.0,44,0.00,,,0.00,weatherlink.com 1.10,2013-08-03 21:01:00,
2013-08-03 14:17:00,81.0,56.0,29.89,NE,47,2.0,4.0,43,0.00,,,0.00,weatherlink.com 1.10,2013-08-03 21:17:00,
2013-08-03 14:32:00,82.3,58.0,29.88,SSW,193,1.0,3.0,43,0.00,,,0.00,weatherlink.com 1.10,2013-08-03 21:32:00,
2013-08-03 14:47:00,84.0,58.0,29.88,SSW,196,1.0,3.0,41,0.00,,,0.00,weatherlink.com 1.10,2013-08-03 21:47:00,
2013-08-03 15:02:00,84.4,58.0,29.88,SE,140,0.0,2.0,40,0.00,,,0.00,weatherlink.com 1.10,2013-08-03 22:02:00,
2013-08-03 15:17:00,84.4,58.0,29.87,SW,227,0.0,4.0,40,0.00,,,0.00,weatherlink.com 1.10,2013-08-03 22:17:00,
2013-08-03 15:32:00,84.1,59.0,29.87,NW,311,2.0,3.0,42,0.00,,,0.00,weatherlink.com 1.10,2013-08-03 22:32:00,
2013-08-03 15:47:00,84.6,57.0,29.86,SSW,198,0.0,4.0,39,0.00,,,0.00,weatherlink.com 1.10,2013-08-03 22:47:00,
2013-08-03 16:02:00,83.8,58.0,29.86,NE,40,2.0,7.0,41,0.00,,,0.00,weatherlink.com 1.10,2013-08-03 23:02:00,
2013-08-03 16:17:00,81.9,57.0,29.86,East,99,1.0,7.0,42,0.00,,,0.00,weatherlink.com 1.10,2013-08-03 23:17:00,
2013-08-03 16:32:00,81.1,57.0,29.86,ENE,68,5.0,5.0,44,0.00,,,0.00,weatherlink.com 1.10,2013-08-03 23:32:00,
2013-08-03 16:47:00,80.4,56.0,29.86,ENE,65,4.0,7.0,44,0.00,,,0.00,weatherlink.com 1.10,2013-08-03 23:47:00,
2013-08-03 17:02:00,79.7,56.0,29.86,ENE,75,3.0,7.0,45,0.00,,,0.00,weatherlink.com 1.10,2013-08-04 00:02:00,
2013-08-03 17:17:00,78.9,56.0,29.85,ENE,70,1.0,6.0,45,0.00,,,0.00,weatherlink.com 1.10,2013-08-04 00:17:00,
2013-08-03 17:32:00,77.9,56.0,29.85,ENE,65,1.0,8.0,47,0.00,,,0.00,weatherlink.com 1.10,2013-08-04 00:32:00,
2013-08-03 17:47:00,77.5,56.0,29.85,NE,55,1.0,4.0,47,0.00,,,0.00,weatherlink.com 1.10,2013-08-04 00:47:00,
2013-08-03 18:02:00,76.2,56.0,29.85,SE,143,2.0,3.0,49,0.00,,,0.00,weatherlink.com 1.10,2013-08-04 01:02:00,
2013-08-03 18:17:00,74.6,55.0,29.85,NE,50,0.0,7.0,51,0.00,,,0.00,weatherlink.com 1.10,2013-08-04 01:17:00,
2013-08-03 18:32:00,73.2,55.0,29.85,ENE,71,0.0,6.0,53,0.00,,,0.00,weatherlink.com 1.10,2013-08-04 01:32:00,
2013-08-03 18:47:00,72.2,55.0,29.85,NE,41,3.0,4.0,55,0.00,,,0.00,weatherlink.com 1.10,2013-08-04 01:47:00,
2013-08-03 19:17:00,69.3,54.0,29.85,ESE,106,0.0,5.0,59,0.00,,,0.00,weatherlink.com 1.10,2013-08-04 02:17:00,
2013-08-03 19:32:00,67.3,53.0,29.85,East,100,2.0,7.0,61,0.00,,,0.00,weatherlink.com 1.10,2013-08-04 02:32:00,
2013-08-03 19:47:00,65.6,53.0,29.86,SE,132,0.0,5.0,64,0.00,,,0.00,weatherlink.com 1.10,2013-08-04 02:47:00,
2013-08-03 20:02:00,64.7,53.0,29.86,ESE,115,0.0,2.0,66,0.00,,,0.00,weatherlink.com 1.10,2013-08-04 03:02:00,
2013-08-03 20:17:00,63.0,53.0,29.86,ENE,57,1.0,4.0,69,0.00,,,0.00,weatherlink.com 1.10,2013-08-04 03:17:00,
2013-08-03 20:32:00,61.4,52.0,29.87,ENE,69,1.0,3.0,71,0.00,,,0.00,weatherlink.com 1.10,2013-08-04 03:32:00,
2013-08-03 20:47:00,59.9,51.0,29.87,SSE,153,0.0,4.0,73,0.00,,,0.00,weatherlink.com 1.10,2013-08-04 03:47:00,
2013-08-03 21:02:00,58.7,51.0,29.88,East,84,0.0,2.0,76,0.00,,,0.00,weatherlink.com 1.10,2013-08-04 04:02:00,
2013-08-03 21:17:00,57.5,51.0,29.89,SE,142,0.0,1.0,78,0.00,,,0.00,weatherlink.com 1.10,2013-08-04 04:17:00,
2013-08-03 21:32:00,56.6,51.0,29.89,NE,49,0.0,4.0,80,0.00,,,0.00,weatherlink.com 1.10,2013-08-04 04:32:00,
2013-08-03 21:47:00,55.8,50.0,29.90,SE,131,0.0,2.0,82,0.00,,,0.00,weatherlink.com 1.10,2013-08-04 04:47:00,
2013-08-03 22:02:00,55.5,50.0,29.91,ESE,118,0.0,1.0,83,0.00,,,0.00,weatherlink.com 1.10,2013-08-04 05:02:00,
2013-08-03 22:17:00,55.1,50.0,29.91,ENE,72,1.0,2.0,84,0.00,,,0.00,weatherlink.com 1.10,2013-08-04 05:17:00,
2013-08-03 22:32:00,54.2,50.0,29.91,ENE,68,0.0,1.0,86,0.00,,,0.00,weatherlink.com 1.10,2013-08-04 05:32:00,
2013-08-03 22:47:00,54.0,50.0,29.91,ESE,111,0.0,1.0,87,0.00,,,0.00,weatherlink.com 1.10,2013-08-04 05:47:00,
2013-08-03 23:02:00,54.0,51.0,29.91,ENE,72,3.0,3.0,88,0.00,,,0.00,weatherlink.com 1.10,2013-08-04 06:02:00,
2013-08-03 23:17:00,53.8,50.0,29.92,ESE,117,0.0,1.0,88,0.00,,,0.00,weatherlink.com 1.10,2013-08-04 06:17:00,
2013-08-03 23:32:00,53.4,50.0,29.91,NE,42,0.0,2.0,89,0.00,,,0.00,weatherlink.com 1.10,2013-08-04 06:32:00,
2013-08-03 23:47:00,53.3,50.0,29.92,ENE,77,0.0,3.0,89,0.00,,,0.00,weatherlink.com 1.10,2013-08-04 06:47:00,